User: anonymous   Login
Location: Kolin
(50.0330°N, 15.2000°E)
Time: 07:01:46
(UTC+02:00)
Language:

ISS - Orbit

View from above orbital plane
View from above orbital plane
View from above satellite
View from above satellite

Ground track
Ground track

The orbit data is extracted from the following two-line orbital elements,

1 25544U 98067A   20191.85283147  .00016717  00000-0  10270-3 0  9031
2 25544  51.6411 236.2956 0002641  88.9474 271.1979 15.49182143 35525
Epoch (UTC): 09 July 2020 20:28:04
Eccentricity: 0.0002641
inclination: 51.6411°
perigee height: 417 km
apogee height: 421 km
right ascension of ascending node: 236.2956°
argument of perigee: 88.9474°
revolutions per day: 15.49182143
mean anomaly at epoch: 271.1979°
orbit number at epoch: 3552

The dashed part of the orbit path shows where the satellite is in the earth's shadow,  

DLR